sat.trackr.live / text

‹ back to catalog

STARLINK-37830

NORAD 69664 · 2026-143R

PAYLOAD ACTIVE UNKNOWN

§ Identity

Operator
Country
US
Launch date
2026-06-21
Launch site
AFWTR
Launch vehicle
Mass (kg)
RCS (m²)

Purposes: comms

External: N2YO · Heavens-Above · Gunter

§ Orbital elements

Epoch: 2026-09-18T09:08:30.729408Z

Period
93.91 min
Inclination
97.2834°
Eccentricity
0.0000187
Mean motion
15.33443281 rev/d
Perigee alt
465.4 km
Apogee alt
465.7 km
Semi-major
6,843.7 km
B*
3.4882e-4
RAAN
304.5370°
Arg perigee
93.7546°
Mean anomaly
266.3718°
Rev number
1,481

§ Raw data

STARLINK-378301 69664U 26143R   26261.38091122  .00011202  00000+0  34882-3 0  99932 69664  97.2834 304.5370 0000187  93.7546 266.3718 15.33443281 14819

JSON: /api/v1/satellites/69664 · /tle

For live sub-satellite position, see the globe view (requires WebGL).

§ Visibility from observer

Set your observer location to see the next 7 days of passes ≥ 10°. The values pass through the URL so the page stays shareable.

No JS? Fill the form by hand. The geolocation button needs JavaScript.